User: anonymous   Login
Location: Theydon Bois
(51.6750°N, 0.1050°E)
Time: 01:07:14
(UTC+01:00)
Language:

Cosmos 921 Rocket - Orbit

View from above orbital plane
View from above orbital plane
View from above satellite
View from above satellite

Ground track
Ground track

The orbit data is extracted from the following two-line orbital elements,

1 10096U 77055B   17289.61873621 +.00000099 +00000-0 +12755-4 0  9993
2 10096 075.8332 143.9341 0043303 257.5066 102.1278 14.88582840180115
Epoch (UTC): 16 October 2017 14:50:58
Eccentricity: 0.0043303
inclination: 75.8332°
perigee height: 572 km
apogee height: 632 km
right ascension of ascending node: 143.9341°
argument of perigee: 257.5066°
revolutions per day: 14.88582840
mean anomaly at epoch: 102.1278°
orbit number at epoch: 18011

The dashed part of the orbit path shows where the satellite is in the earth's shadow,  

DLR